Location: Bartlett
(35.2045°N, 89.8740°W)
Time: 17:50:51
(UTC+00:00)

Transit 4A - Pass Details

Date: 21 December 2025
Orbit: 867 x 974 km, 66.8° (Epoch: 14 January)

Event Time Altitude Azimuth Distance (km) Brightness Sun altitude
Rises 06:36:06 0° 350° (N) 3,530 - -75.6°
Reaches altitude 10° 06:39:56 10° 14° (NNE) 2,609 - -75.1°
Maximum altitude 06:43:07 14° 46° (NE) 2,318 - -74.6°
Drops below altitude 10° 06:46:21 10° 78° (ENE) 2,644 - -74.2°
Sets 06:50:15 0° 102° (ESE) 3,608 - -73.6°
